Wangaratta Airport
YWGT : now visible

Airfield :











YOU CAN JOIN US ON...

 
LOGIN :

Register | Disclaimer

   EN    FR    IT 

 









Legend :    VFR   Marginal VFR   IFR   Intensive IFR   Very Intensive IFR
Visi :
Ceiling :
>= 8 km
>= 3000ft
5 to 8 km
1000 to 3000 ft
1500m to 5 km
500 to 1000 ft
800 to 1500m
200 to 500 ft
< 800m
< 200 ft
Symbols :   Thunderstorms  Fog  Heavy snow  Heavy precipitations  Wind > 20 kt






- Airport Elevation : 504 ft
- IATA code : WGT


YWGT - Wangaratta

CURRENT METAR :
  • 130300Z AUTO 01008KT 9999 // NCD 17/05 Q1018

EXPIRED METARs :
  • 130200Z AUTO 36008KT 350V060 9999 // ////// 17/05 Q1019
  • 130100Z AUTO 01007KT 9999 // ////// 16/05 Q1020

TAF TAF YWGT
Valid from the 13 at 02:00 until the 13 at 14:00 UTC


130110Z 1302/1314 02010KT CAVOK
FM131000 VRB03KT CAVOK
YMMM FIR / Oceania



MET'MAP, your aeronautical weather chart ! - Copyright ORBIFLY December 2007 - Disclaimer

ORBIFLY MET'MAP TEAM :

Programming & Development : Alexandra Zaïnal
Concept & original design : Baudouin d'Aumeries
Assistance for programming : Marc-Olivier Méhu
Technical & hardware support : Manuel Goepfert

Contact : metmap@orbifly.com




SOURCES & CREDITS :

   NOAA       Earth
Advisory